[[{"header":{"parameterUnit":"m.s-1","parameterCategory":1,"la1":30.2991,"la2":30.254,"lo1":-89.0895,"lo2":-89.0444,"dy":0.0017,"dx":0.0017,"nx":28,"ny":28,"refTime":"2025-07-03T03:00:00:Z","depth":0,"parameterNumber":2,"parameterNumberName":"U-component_of_WINDS"},"data":[0,0,0,0,0,0,0,0,0,0,0,0,0,0,0,0,0,0,0,0,0,0,0,0,0,0,0,0,0,0,0,0,0,0,0,0,0,0,0,0,0,0,0,0,0,0,0,0,0,0,0,0,0,0,0,0,0,0,1.1335,1.1336,0,1.1443,1.1444,1.1445,1.1506,1.1506,1.1506,1.1506,1.1618,1.1621,1.1624,0,0,0,0,0,0,0,0,0,0,0,0,0,1.1184,1.1186,1.1335,1.1336,1.1338,1.1443,1.1444,1.1446,1.1506,1.1506,1.1506,1.1506,1.1617,1.1621,1.1624,0,0,0,0,0,0,0,0,0,0,0,0,0,1.1266,1.1187,1.1335,1.138,1.1385,1.1442,1.1444,1.1446,1.1506,1.1506,1.1506,1.1506,1.1616,1.162,1.1624,1.1645,0,0,1.1637,1.1639,0,0,0,0,0,0,0,0,1.1261,1.1272,1.1372,1.1377,1.1383,1.1461,1.1432,1.1513,1.1506,1.146,1.1506,1.1507,1.1566,1.1574,1.1594,1.165,1.1655,1.1638,1.164,1.1642,1.1643,0,0,0,0,0,0,0,1.1256,1.1267,1.1378,1.1374,1.138,1.1396,1.1408,1.1447,1.151,1.1464,1.1469,1.1481,1.1569,1.159,1.1597,1.1656,1.1637,1.1641,1.1644,1.1645,1.1736,1.1736,0,0,0,0,0,0,1.1242,1.1262,1.1374,1.1381,1.1322,1.1399,1.1412,1.1436,1.151,1.1521,1.148,1.1483,1.1582,1.1592,1.1601,1.163,1.1642,1.1646,1.1648,1.1736,1.1736,1.1736,0,0,0,0,0,0,1.1239,1.1252,1.137,1.1323,1.1339,1.1401,1.1427,1.1438,1.1459,1.1522,1.1534,1.149,1.1583,1.1595,1.1634,1.1635,1.1648,1.1652,1.1736,1.1736,1.1736,1.1688,0,0,0,0,0,0,1.1234,1.125,1.1258,1.1323,1.1341,1.14,1.1427,1.144,1.1466,1.147,1.1534,1.1545,1.1584,1.1627,1.1638,1.1641,1.1655,1.1736,1.1736,1.1736,1.169,1.1686,1.1683,0,0,0,0,0,1.1229,1.124,1.1258,1.1271,1.1352,1.14,1.1411,1.1455,1.1465,1.1474,1.1515,1.1543,1.1633,1.163,1.1643,1.1647,1.1736,1.1736,1.1736,1.1691,1.1687,1.1683,0,0,0,0,0,0,1.1174,1.1249,1.127,1.1303,1.1344,1.141,1.1422,1.1449,1.1489,1.1491,1.1545,1.1559,1.1593,1.1624,1.162,1.1672,1.1688,1.169,1.165,1.1646,1.1643,1.1634,1.1658,0,0,0,0,0,1.1166,1.1198,1.1262,1.1285,1.1305,1.1359,1.1382,1.1413,1.1458,1.1476,1.152,1.1563,1.1602,1.1626,1.1665,1.1695,1.171,1.1705,1.1701,1.1698,1.1699,1.1719,1.1717,1.1735,1.1735,1.1735,0,0,1.1149,1.1194,1.1211,1.1275,1.1311,1.1343,1.1374,1.1407,1.1431,1.1481,1.152,1.1554,1.1606,1.1641,1.1658,1.1668,1.1698,1.1698,1.1695,1.1698,1.1718,1.1716,1.1715,1.1735,1.1735,1.1735,0,0,1.1135,1.1172,1.1196,1.1231,1.1285,1.1322,1.1327,1.1389,1.1413,1.1453,1.1492,1.1522,1.1587,1.1623,1.1649,1.165,1.1678,1.1662,1.1644,1.1662,1.1661,1.166,1.166,1.166,1.1663,1.1663,1.1662,0,1.1108,1.1157,1.1204,1.1235,1.1262,1.1309,1.1334,1.1366,1.143,1.1448,1.1458,1.1541,1.1579,1.1623,1.1623,1.1643,1.1652,1.1654,1.1657,1.1657,1.1656,1.1658,1.1658,1.166,1.166,1.1661,1.1661,0,1.1121,1.1155,1.1168,1.1228,1.1257,1.1284,1.1336,1.136,1.1388,1.1424,1.1465,1.1513,1.1562,1.1575,1.1603,1.1623,1.1628,1.1647,1.1664,1.1652,1.1654,1.1654,1.1657,1.1658,1.1658,1.1659,0,0,1.1075,1.1162,1.1165,1.1194,1.1257,1.1285,1.1315,1.1363,1.1382,1.1425,1.1452,1.1506,1.1524,1.1555,1.1588,1.1603,1.1601,1.1621,1.1623,1.1615,1.1627,1.1612,1.1611,1.162,1.162,1.1621,1.1623,0,1.107,1.1126,1.1169,1.1209,1.1241,1.1286,1.1313,1.1355,1.1389,1.1423,1.1461,1.1499,1.152,1.1539,1.1556,1.1598,1.1604,1.1598,1.1646,1.1647,1.1631,1.1613,1.1597,1.1596,1.1624,1.1624,1.1624,0,1.1072,1.1113,1.1155,1.1216,1.1231,1.1254,1.1302,1.1333,1.1382,1.1406,1.144,1.1474,1.1509,1.1523,1.1572,1.1567,1.1589,1.1613,1.1614,1.162,1.1634,1.1618,1.1597,1.1596,1.1626,1.1625,1.1625,0,1.1034,1.1099,1.1133,1.1156,1.1228,1.1243,1.1274,1.1323,1.135,1.1392,1.141,1.1456,1.1481,1.1516,1.1562,1.1568,1.1606,1.1625,1.1628,1.1627,1.1633,1.1632,1.1615,1.1648,1.1648,1.1648,1.1648,0,1.1023,1.1047,1.1117,1.1138,1.1167,1.1218,1.1245,1.128,1.1324,1.1352,1.1395,1.1421,1.1481,1.1515,1.1551,1.1586,1.1597,1.1618,1.1627,1.1614,1.1611,1.1629,1.163,1.1648,1.1648,1.1648,1.1648,0,1.0985,1.1033,1.1073,1.1138,1.1155,1.1173,1.1229,1.1252,1.1289,1.1325,1.1337,1.1396,1.1438,1.1487,1.1546,1.157,1.1602,1.1616,1.1585,1.159,1.1591,1.159,1.1585,1.1587,1.1618,1.1617,1.1617,0,1.0975,1.0995,1.1062,1.1084,1.1114,1.1149,1.1176,1.1228,1.1254,1.1313,1.1328,1.1373,1.1412,1.1478,1.1526,1.1571,1.1586,1.1581,1.1593,1.1579,1.1586,1.1584,1.1586,1.1578,1.1577,1.1577,1.1576,0,1.0952,1.0975,1.1012,1.1058,1.109,1.1128,1.1169,1.1185,1.1245,1.1273,1.1316,1.1347,1.1406,1.1451,1.1502,1.1535,1.1566,1.1572,1.1575,1.1562,1.1543,1.1553,1.1576,1.1572,1.1572,1.1573,1.1573,1.1573,1.0928,1.0948,1.0998,1.1039,1.1075,1.1112,1.1136,1.1177,1.1214,1.1266,1.1295,1.1337,1.1387,1.146,1.1491,1.1526,1.1537,1.1541,1.1542,1.1542,1.1538,1.1537,1.1536,1.1536,1.1536,1.1536,1.1536,0,1.0907,1.0942,1.0979,1.1034,1.1066,1.1093,1.1139,1.1164,1.1201,1.1245,1.1283,1.1333,1.1377,1.1429,1.1476,1.1494,1.1509,1.1505,1.1504,1.1511,1.1526,1.1519,1.1492,1.1492,1.1492,1.1492,1.1492,1.1492,1.09,1.0935,1.0964,1.1017,1.1053,1.1095,1.1119,1.1154,1.1189,1.1243,1.128,1.1313,1.1361,1.1412,1.1454,1.1468,1.1484,1.1475,1.1493,1.1506,1.151,1.1513,1.1507,1.1478,1.1478,1.1475,1.1475,1.1475]},{"header":{"parameterUnit":"m.s-1","parameterCategory":1,"la1":30.2991,"la2":30.254,"lo1":-89.0895,"lo2":-89.0444,"dy":0.0017,"dx":0.0017,"nx":28,"ny":28,"refTime":"2025-07-03T03:00:00:Z","depth":0,"parameterNumber":3,"parameterNumberName":"V-component_of_WINDS"},"data":[0,0,0,0,0,0,0,0,0,0,0,0,0,0,0,0,0,0,0,0,0,0,0,0,0,0,0,0,0,0,0,0,0,0,0,0,0,0,0,0,0,0,0,0,0,0,0,0,0,0,0,0,0,0,0,0,0,0,0.2269,0.2269,0,0.2267,0.2267,0.2267,0.222,0.2218,0.2217,0.2216,0.2214,0.2215,0.2216,0,0,0,0,0,0,0,0,0,0,0,0,0,0.2229,0.223,0.2269,0.2269,0.2269,0.2267,0.2267,0.2267,0.222,0.2218,0.2217,0.2216,0.2213,0.2215,0.2216,0,0,0,0,0,0,0,0,0,0,0,0,0,0.2239,0.223,0.2269,0.2245,0.2243,0.2267,0.2267,0.2267,0.222,0.2218,0.2217,0.2215,0.2213,0.2215,0.2216,0.2263,0,0,0.2221,0.2222,0,0,0,0,0,0,0,0,0.2238,0.224,0.2249,0.2247,0.2244,0.2242,0.2252,0.2266,0.2221,0.2229,0.2216,0.2214,0.2225,0.2225,0.2229,0.2263,0.2263,0.2221,0.2222,0.2223,0.2223,0,0,0,0,0,0,0,0.2238,0.224,0.2268,0.2249,0.2246,0.2234,0.2233,0.2254,0.2237,0.2228,0.2225,0.2225,0.2223,0.2227,0.2228,0.2263,0.2221,0.2223,0.2224,0.2224,0.233,0.2331,0,0,0,0,0,0,0.2241,0.224,0.2268,0.2268,0.2237,0.2236,0.2235,0.2244,0.2237,0.2234,0.2227,0.2223,0.2225,0.2227,0.2228,0.2278,0.2223,0.2224,0.2225,0.2328,0.233,0.2332,0,0,0,0,0,0,0.224,0.2244,0.2268,0.2253,0.2255,0.2239,0.2249,0.2245,0.225,0.2236,0.2232,0.2234,0.2224,0.2226,0.2253,0.2278,0.2225,0.2227,0.2326,0.2328,0.2331,0.2382,0,0,0,0,0,0,0.2239,0.2244,0.2262,0.2254,0.2256,0.2295,0.2251,0.2247,0.2253,0.2248,0.2242,0.2239,0.2223,0.2251,0.2255,0.2279,0.2228,0.2323,0.2327,0.233,0.2378,0.2386,0.2393,0,0,0,0,0,0.2238,0.2277,0.2263,0.2267,0.2279,0.2296,0.2298,0.2278,0.2255,0.2272,0.2262,0.2239,0.2275,0.2255,0.2258,0.2283,0.2322,0.2326,0.233,0.2374,0.2384,0.2392,0,0,0,0,0,0,0.2289,0.2276,0.226,0.2298,0.2299,0.2288,0.231,0.229,0.2297,0.2292,0.2267,0.2266,0.2297,0.2293,0.2271,0.2325,0.2294,0.2299,0.2326,0.2336,0.2343,0.2342,0.2229,0,0,0,0,0,0.2305,0.2321,0.2308,0.2343,0.2344,0.2327,0.2334,0.2319,0.2318,0.2318,0.231,0.231,0.2321,0.2329,0.2338,0.2378,0.2373,0.2396,0.2404,0.241,0.2414,0.243,0.2439,0.2345,0.2345,0.2345,0,0,0.2338,0.2333,0.2344,0.2353,0.2352,0.2367,0.2327,0.2346,0.2357,0.2321,0.2345,0.234,0.2338,0.237,0.2384,0.2368,0.2439,0.2415,0.242,0.2421,0.2435,0.2444,0.2452,0.2348,0.2348,0.2347,0,0,0.2405,0.2404,0.2431,0.2429,0.2427,0.2415,0.2421,0.2414,0.2408,0.2432,0.2404,0.2416,0.2437,0.2435,0.2437,0.25,0.2477,0.2504,0.2542,0.2558,0.2565,0.2571,0.259,0.2598,0.2508,0.2508,0.2508,0,0.2446,0.2468,0.2447,0.2466,0.2469,0.2437,0.2462,0.2463,0.2464,0.2466,0.2448,0.247,0.2467,0.2496,0.2511,0.2515,0.2519,0.2503,0.2566,0.2572,0.2578,0.2595,0.2603,0.2511,0.2511,0.251,0.251,0,0.2516,0.2532,0.2554,0.2554,0.256,0.2583,0.2564,0.2572,0.2556,0.2545,0.2568,0.2563,0.2569,0.2575,0.2561,0.2602,0.2591,0.2571,0.2538,0.259,0.2605,0.2612,0.2515,0.2514,0.2513,0.2513,0,0,0.2616,0.2602,0.261,0.2608,0.2602,0.2613,0.2633,0.2638,0.2644,0.2646,0.266,0.2676,0.2655,0.2657,0.2642,0.2657,0.2702,0.2633,0.2633,0.2643,0.2742,0.2755,0.2764,0.2688,0.2689,0.269,0.2741,0,0.2677,0.2709,0.269,0.2725,0.2737,0.2705,0.2722,0.2719,0.271,0.2718,0.2707,0.2717,0.2692,0.2692,0.2705,0.2694,0.2721,0.269,0.2698,0.2698,0.2696,0.2773,0.2788,0.2836,0.2747,0.2749,0.2749,0,0.2753,0.2755,0.2791,0.2779,0.2783,0.2799,0.28,0.2809,0.2804,0.2796,0.2797,0.2777,0.2793,0.2763,0.2784,0.2763,0.2766,0.276,0.2762,0.2759,0.2725,0.2769,0.2851,0.2857,0.276,0.2759,0.2758,0,0.2816,0.2829,0.2851,0.2851,0.2839,0.2849,0.2845,0.2838,0.2841,0.2843,0.2844,0.2847,0.2848,0.2851,0.2831,0.2812,0.2853,0.2822,0.2844,0.2845,0.2852,0.2852,0.2933,0.286,0.286,0.2859,0.2859,0,0.2884,0.2907,0.2879,0.2892,0.2915,0.2892,0.2915,0.2907,0.2901,0.2911,0.2885,0.2895,0.287,0.2877,0.2862,0.2879,0.2881,0.2873,0.2868,0.2873,0.2874,0.2872,0.2867,0.2861,0.2861,0.2861,0.286,0,0.2958,0.2941,0.2962,0.2948,0.2945,0.2962,0.2949,0.296,0.2948,0.2961,0.2962,0.2943,0.2949,0.293,0.2934,0.2924,0.2948,0.294,0.2949,0.2945,0.2967,0.2964,0.3047,0.3056,0.298,0.2981,0.2982,0,0.3001,0.3017,0.3004,0.3008,0.3005,0.3013,0.3015,0.2993,0.2996,0.299,0.3,0.3004,0.3006,0.3017,0.3002,0.3004,0.2993,0.3022,0.2993,0.2997,0.2989,0.2987,0.2987,0.3028,0.3029,0.3029,0.303,0,0.3078,0.3068,0.3073,0.3073,0.3076,0.3076,0.3074,0.3079,0.3054,0.3059,0.3064,0.3065,0.3068,0.307,0.3069,0.3063,0.3041,0.304,0.3044,0.3048,0.3051,0.3046,0.2962,0.3037,0.3036,0.3036,0.3036,0.3035,0.3135,0.3146,0.3138,0.3143,0.3138,0.3136,0.3144,0.3132,0.3136,0.3136,0.3123,0.313,0.3121,0.3117,0.3112,0.3117,0.3103,0.3111,0.3112,0.3113,0.3115,0.3053,0.3117,0.3117,0.3116,0.3116,0.3116,0,0.3208,0.32,0.3205,0.3201,0.3204,0.3184,0.318,0.3183,0.319,0.3184,0.3186,0.319,0.3192,0.3177,0.3177,0.3183,0.3173,0.3183,0.3181,0.3179,0.3129,0.3124,0.3191,0.3191,0.3191,0.3191,0.3191,0.3191,0.3245,0.3262,0.325,0.3263,0.3255,0.3261,0.326,0.3257,0.3252,0.3258,0.3259,0.3249,0.3239,0.3237,0.3237,0.3233,0.3232,0.3245,0.3237,0.3191,0.3183,0.3176,0.317,0.3246,0.3247,0.3286,0.3286,0.3287]}]]